Weather History for Toluca Jose Maria, Mexico

Change the Weather History Date:

Tuesday, February 19, 2013

  Actual Average Record
Temperature  
Mean Temperature 54 °F -  
Max Temperature 73 °F 69 °F 80 °F (2009)
Min Temperature 35 °F 33 °F 23 °F (1998)
Degree Days  
Heating Degree Days 11    
Growing Degree Days 4 (Base 50)    
Moisture  
Dew Point 32 °F    
Average Humidity 49    
Maximum Humidity 81    
Minimum Humidity 20    
Precipitation  
Precipitation 0.00 in - - ()
Sea Level Pressure  
Sea Level Pressure 30.21 in    
Wind  
Wind Speed 3 mph ()    
Max Wind Speed 13 mph    
Max Gust Speed -    
Visibility 5.7 miles    
Events      
Averages and records for this station are not official NWS values.
T = Trace of Precipitation, MM = Missing Value Source: Averaged Metar Reports

Daily Weather History Graph

Daily Weather History Graph

Search for Another Location

Airport:

Trip Planner

Search our weather history database for the weather conditions in past years. The results will help you decide how hot, cold, wet, or windy it might be!

Date:

Astronomy

Feb. 19, 2013 Rise Set
Actual Time 7:04 AM CST 6:40 PM CST
Civil Twilight 6:41 AM CST 7:02 PM CST
Nautical Twilight 6:16 AM CST 7:28 PM CST
Astronomical Twilight 5:50 AM CST 7:53 PM CST
Moon 1:36 PM CST (2/19) 2:14 AM CST (2/19)
Length of Visible Light 12h 20m
Length of Day
11h 35m
Waxing Gibbous, 67% of the Moon is Illuminated
Feb 19
Waxing Gibbous
Feb 25
Full
Mar 4
Last Quarter
Mar 11
New
Mar 19
First Quarter

Hourly Weather History & Observations

Time (CST) Temp. Windchill Dew Point Humidity Pressure Visibility Wind Dir Wind Speed Gust Speed Precip Events Conditions
12:45 AM 44.6 °F - 32.0 °F 61% 30.38 in 5.0 mi Calm Calm - N/A   Clear
1:45 AM 41.0 °F - 32.0 °F 70% 30.37 in 5.0 mi Calm Calm - N/A   Clear
2:45 AM 41.0 °F - 32.0 °F 70% 29.81 in 5.0 mi Calm Calm - N/A   Clear
3:45 AM 39.2 °F - 32.0 °F 75% 30.36 in 4.0 mi Calm Calm - N/A   Clear
4:45 AM 39.2 °F - 32.0 °F 75% 30.36 in 4.0 mi Calm Calm - N/A   Clear
5:45 AM 35.6 °F - 30.2 °F 81% 29.81 in 3.0 mi Calm Calm - N/A   Clear
6:45 AM 37.4 °F - 32.0 °F 81% 30.39 in 3.0 mi Calm Calm - N/A   Clear
7:45 AM 39.2 °F - 32.0 °F 75% 30.41 in 4.0 mi Calm Calm - N/A   Clear
8:45 AM 44.6 °F 43.1 °F 33.8 °F 66% 29.97 in 5.0 mi WNW 3.5 mph - N/A   Clear
9:45 AM 55.4 °F - 35.6 °F 47% 30.44 in 5.0 mi Calm Calm - N/A   Scattered Clouds
10:45 AM 64.4 °F - 35.6 °F 34% 30.44 in 5.0 mi West 3.5 mph - N/A   Scattered Clouds
11:45 AM 68.0 °F - 32.0 °F 26% 29.87 in 6.0 mi East 4.6 mph - N/A   Scattered Clouds
12:45 PM 69.8 °F - 30.2 °F 23% 30.38 in 7.0 mi East 4.6 mph - N/A   Scattered Clouds
1:45 PM 73.4 °F - 30.2 °F 20% 30.35 in 7.0 mi SSE 10.4 mph - N/A   Mostly Cloudy
2:40 PM 73.4 °F - 30.2 °F 20% 29.79 in 7.0 mi SSE 11.5 mph - N/A   Mostly Cloudy
3:44 PM 71.6 °F - 30.2 °F 22% 30.30 in 7.0 mi SSW 12.7 mph - N/A   Mostly Cloudy
4:41 PM 68.0 °F - 32.0 °F 26% 30.28 in 7.0 mi South 12.7 mph - N/A   Mostly Cloudy
6:41 PM 64.4 °F - 30.2 °F 28% 30.30 in 7.0 mi South 12.7 mph - N/A   Mostly Cloudy
7:42 PM 62.6 °F - 30.2 °F 30% 30.31 in 7.0 mi South 12.7 mph - N/A   Mostly Cloudy
8:42 PM 57.2 °F - 30.2 °F 36% 29.92 in 7.0 mi SSE 5.8 mph - N/A   Scattered Clouds
9:45 PM 53.6 °F - 32.0 °F 44% 30.36 in 7.0 mi Calm Calm - N/A   Scattered Clouds
10:45 PM 50.0 °F - 32.0 °F 50% 30.37 in 7.0 mi North 4.6 mph - N/A   Partly Cloudy
11:45 PM 48.2 °F - 33.8 °F 58% 29.82 in 7.0 mi Calm Calm - N/A   Partly Cloudy